Flag Weather past 2 weeks in Rouen, France

Now
52 °F

Fog.


Feels Like: 51 °F
Forecast: 46 / 56 °F
Wind: 5 mph from Southeast

Location: Rouen Airport

Current Time: Nov 26, 2014 at 2:22:32 PM

Latest Report: Nov 26, 2014 at 2:00 PM


Visibility: 3 mi

Pressure: 29.83 "Hg

Humidity: 100%

Dew point: 52 °F

Location of RouenLocation

Historic Weather in Rouen — Graph

°F

Rouen temperature yesterday

Maximum temperature yesterday: 48 °F (at 1:30 PM)
Minimum temperature yesterday: 45 °F (at 2:00 AM)
Average temperature yesterday: 46 °F

Past Weeks' High & Low Weather Summary

 TemperatureHumidityPressure
High59 °F (Nov 23, 2:00 PM)100% (Nov 13, 5:30 AM)30.27 "Hg (Nov 13, 5:30 AM)
Low39 °F (Nov 19, 1:30 AM)63% (Nov 12, 3:00 PM)29.42 "Hg (Nov 12, 12:30 AM)
Average48 °F90%29.83 "Hg
* Reported Nov 11 1:00 PM — Nov 26 1:00 PM, Rouen, Weather by CustomWeather, © 2014

Note: Actual official high and low records may vary slightly from our data, if they occured in-between our weather recording intervals... More about our weather records

Advertising

Rouen weather history for previous 24 hours

 ConditionsComfort  
Time TempWeatherWind HumidityBarometerVisibility
1:00 PM
Nov 26
52 °FFog.5 mph94%29.83 "Hg2 mi
12:30 PM50 °FFog.5 mph100%29.86 "Hg1 mi
12:00 PM50 °FFog.5 mph94%29.86 "Hg1 mi
11:30 AM50 °FFog.5 mph94%29.89 "Hg1 mi
11:00 AM50 °FFog.3 mph94%29.89 "Hg1 mi
10:30 AM48 °FFog.2 mph100%29.89 "Hg0 mi
10:00 AM48 °FFog.3 mph94%29.89 "Hg0 mi
9:30 AM48 °FFog.5 mph94%29.89 "Hg0 mi
9:00 AM48 °FFog.6 mph94%29.89 "Hg0 mi
8:30 AM48 °FFog.3 mph94%29.86 "Hg0 mi
8:00 AM48 °FFog.3 mph94%29.86 "Hg0 mi
7:30 AM48 °FFog.3 mph94%29.86 "Hg0 mi
7:00 AM48 °FFog.3 mph94%29.89 "Hg1 mi
6:30 AM46 °FFog.3 mph100%29.89 "Hg1 mi
6:00 AM46 °FFog.3 mph100%29.89 "Hg2 mi
5:30 AM46 °FDrizzle. Fog.3 mph100%29.89 "Hg2 mi
5:00 AM46 °FFog.3 mph100%29.89 "Hg2 mi
4:30 AM46 °FRain. Fog.3 mph100%29.89 "Hg1 mi
4:00 AM46 °FLight rain. Fog.5 mph100%29.89 "Hg2 mi
3:30 AM46 °FLight rain. Fog.6 mph100%29.92 "Hg1 mi
3:00 AM46 °FLight rain. Fog.5 mph100%29.92 "Hg1 mi
2:30 AM46 °FDrizzle. Fog.5 mph100%29.92 "Hg1 mi
2:00 AM46 °FLight rain. Fog.3 mph100%29.92 "Hg1 mi
1:30 AM46 °FLight rain. Fog.3 mph100%29.92 "Hg2 mi
1:00 AM46 °FLight rain. Fog.5 mph100%29.95 "Hg2 mi
12:30 AM46 °FDrizzle. Fog.6 mph100%29.95 "Hg2 mi
12:00 AM46 °FLight rain. Fog.5 mph100%29.95 "Hg2 mi
11:30 PM
Nov 25
46 °FLight rain. Fog.3 mph93%29.95 "Hg2 mi
11:00 PM46 °FLight rain. Fog.6 mph93%29.98 "Hg2 mi
10:30 PM46 °FRain. Fog.5 mph93%29.98 "Hg2 mi
10:00 PM46 °FLight rain. Fog.3 mph93%29.98 "Hg3 mi
9:30 PM46 °FLight rain. Overcast.5 mph93%29.98 "Hg4 mi
9:00 PM46 °FLight rain. Overcast.7 mph93%29.98 "Hg6 mi
8:30 PM46 °FLight rain. Overcast.7 mph93%29.98 "Hg5 mi
8:00 PM46 °FLight rain. Overcast.7 mph93%29.98 "Hg6 mi
7:30 PM46 °FOvercast.6 mph93%29.98 "HgN/A
7:00 PM46 °FOvercast.7 mph93%29.98 "HgN/A
6:30 PM46 °FOvercast.7 mph93%30.01 "HgN/A
6:00 PM46 °FOvercast.7 mph93%30.01 "HgN/A
5:30 PM46 °FMostly cloudy.6 mph93%30.01 "HgN/A
5:00 PM46 °FClear.9 mph93%30.01 "Hg6 mi
4:30 PM46 °FClear.7 mph93%30.01 "Hg6 mi
4:00 PM48 °FClear.9 mph87%30.01 "Hg6 mi
3:30 PM48 °FLight rain. Clear.9 mph87%30.01 "Hg5 mi
3:00 PM48 °FClear.8 mph87%30.04 "Hg6 mi
2:30 PM46 °FClear.9 mph93%30.04 "Hg5 mi
2:00 PM48 °FMostly cloudy.9 mph87%30.04 "Hg5 mi
Weather by CustomWeather, © 2014

See weather overviewHow to use our weather pages